QLK487 YMML-YSSY

Flight info

Callsign QLK487
Flight time 1h 6m
Altitude 39000
Route DOSEL2 DOSEL Y59 RIVET
Aircraft A320/M-SDE3FGHIRWY/LB1

Departure

Time 2026-04-30 07:14
Airport Melbourne Airport (YMML)

Arrival

Time 2026-04-30 08:21
Airport Sydney Kingsford Smith International Airport (YSSY)
Time Latitude Longitude Altitude Speed Heading
2026-04-30 06:48 -37.67064 144.84572 359 ft 0 kts 171°
2026-04-30 07:01 -37.67061 144.84571 365 ft 2 kts 172°
2026-04-30 07:01 -37.67043 144.84569 361 ft 3 kts 184°
2026-04-30 07:02 -37.67024 144.84574 360 ft 3 kts 209°
2026-04-30 07:02 -37.67010 144.84588 362 ft 3 kts 249°
2026-04-30 07:02 -37.67008 144.84596 360 ft 1 kts 259°
2026-04-30 07:07 -37.67009 144.84588 363 ft 5 kts 259°
2026-04-30 07:07 -37.67013 144.84545 363 ft 5 kts 267°
2026-04-30 07:07 -37.67016 144.84494 365 ft 5 kts 266°
2026-04-30 07:07 -37.67034 144.84443 364 ft 7 kts 238°
2026-04-30 07:08 -37.67049 144.84379 367 ft 9 kts 258°
2026-04-30 07:08 -37.67059 144.84297 369 ft 9 kts 261°
2026-04-30 07:08 -37.67107 144.84252 373 ft 11 kts 181°
2026-04-30 07:08 -37.67168 144.84263 368 ft 15 kts 172°
2026-04-30 07:09 -37.67337 144.84295 366 ft 21 kts 171°
2026-04-30 07:09 -37.67440 144.84316 361 ft 24 kts 171°
2026-04-30 07:09 -37.67613 144.84346 360 ft 27 kts 172°
2026-04-30 07:09 -37.67863 144.84392 355 ft 23 kts 172°
2026-04-30 07:10 -37.67998 144.84418 346 ft 21 kts 172°
2026-04-30 07:10 -37.68102 144.84438 346 ft 24 kts 171°
2026-04-30 07:10 -37.68265 144.84468 335 ft 20 kts 171°
2026-04-30 07:10 -37.68412 144.84414 334 ft 18 kts 213°
2026-04-30 07:11 -37.68518 144.84324 332 ft 14 kts 219°
2026-04-30 07:11 -37.68552 144.84239 332 ft 4 kts 266°
2026-04-30 07:11 -37.68552 144.84237 332 ft 0 kts 267°
2026-04-30 07:12 -37.68552 144.84236 332 ft 1 kts 267°
2026-04-30 07:12 -37.68552 144.84224 332 ft 3 kts 267°
2026-04-30 07:12 -37.68553 144.84180 333 ft 6 kts 274°
2026-04-30 07:13 -37.68531 144.84117 335 ft 5 kts 297°
2026-04-30 07:13 -37.68525 144.84109 334 ft 7 kts 314°
2026-04-30 07:13 -37.68398 144.84059 335 ft 15 kts 336°
2026-04-30 07:13 -37.68293 144.84044 340 ft 19 kts 352°
2026-04-30 07:14 -37.68016 144.83995 350 ft 71 kts 351°
2026-04-30 07:14 -37.67329 144.83865 371 ft 126 kts 351°
2026-04-30 07:14 -37.66329 144.83654 526 ft 156 kts 353°
2026-04-30 07:14 -37.65249 144.83441 1048 ft 159 kts 353°
2026-04-30 07:15 -37.64146 144.83250 1624 ft 162 kts 354°
2026-04-30 07:15 -37.63018 144.83054 2267 ft 168 kts 353°
2026-04-30 07:15 -37.61807 144.82831 2682 ft 184 kts 353°
2026-04-30 07:15 -37.60443 144.82593 3001 ft 211 kts 352°
2026-04-30 07:16 -37.58931 144.82426 3547 ft 232 kts
2026-04-30 07:16 -37.57314 144.82927 4268 ft 247 kts 19°
2026-04-30 07:16 -37.55735 144.83866 5183 ft 255 kts 24°
2026-04-30 07:16 -37.54162 144.84938 6123 ft 259 kts 25°
2026-04-30 07:17 -37.52573 144.86033 7044 ft 262 kts 24°
2026-04-30 07:17 -37.50947 144.87121 7902 ft 267 kts 24°
2026-04-30 07:17 -37.47571 144.89267 9571 ft 277 kts 22°
2026-04-30 07:18 -37.45821 144.90348 10244 ft 288 kts 24°
2026-04-30 07:18 -37.44058 144.91777 10503 ft 316 kts 36°
2026-04-30 07:18 -37.42489 144.93769 10988 ft 332 kts 48°
2026-04-30 07:18 -37.41137 144.96159 11663 ft 338 kts 51°
2026-04-30 07:19 -37.39775 144.98592 12386 ft 342 kts 51°
2026-04-30 07:19 -37.38393 145.01044 13121 ft 345 kts 51°
2026-04-30 07:19 -37.36991 145.03519 13830 ft 350 kts 51°
2026-04-30 07:19 -37.35570 145.06020 14505 ft 354 kts 51°
2026-04-30 07:20 -37.34134 145.08543 15152 ft 357 kts 51°
2026-04-30 07:20 -37.32684 145.11092 15796 ft 360 kts 51°
2026-04-30 07:20 -37.31224 145.13663 16432 ft 363 kts 51°
2026-04-30 07:20 -37.29754 145.16258 17065 ft 366 kts 51°
2026-04-30 07:21 -37.28271 145.18873 17711 ft 369 kts 50°
2026-04-30 07:21 -37.26772 145.21512 18355 ft 373 kts 50°
2026-04-30 07:21 -37.25278 145.24139 18942 ft 376 kts 50°
2026-04-30 07:21 -37.23751 145.26822 19507 ft 379 kts 50°
2026-04-30 07:22 -37.20662 145.32244 20691 ft 385 kts 50°
2026-04-30 07:22 -37.19098 145.34986 21264 ft 388 kts 50°
2026-04-30 07:22 -37.17521 145.37750 21828 ft 391 kts 50°
2026-04-30 07:23 -37.15928 145.40535 22377 ft 395 kts 49°
2026-04-30 07:23 -37.14320 145.43342 22905 ft 398 kts 49°
2026-04-30 07:23 -37.12697 145.46171 23463 ft 401 kts 50°
2026-04-30 07:23 -37.11064 145.49018 23994 ft 404 kts 50°
2026-04-30 07:24 -37.09418 145.51887 24431 ft 407 kts 50°
2026-04-30 07:24 -37.07782 145.54735 24855 ft 410 kts 50°
2026-04-30 07:24 -37.06115 145.57638 25300 ft 412 kts 49°
2026-04-30 07:24 -37.04433 145.60559 25705 ft 415 kts 50°
2026-04-30 07:25 -37.02737 145.63499 26102 ft 418 kts 49°
2026-04-30 07:25 -37.01031 145.66457 26529 ft 420 kts 50°
2026-04-30 07:25 -36.99314 145.69434 26936 ft 423 kts 50°
2026-04-30 07:25 -36.97586 145.72425 27330 ft 426 kts 50°
2026-04-30 07:26 -36.95846 145.75433 27712 ft 429 kts 50°
2026-04-30 07:26 -36.94094 145.78461 28089 ft 431 kts 50°
2026-04-30 07:26 -36.92335 145.81507 28495 ft 433 kts 50°
2026-04-30 07:26 -36.90592 145.84525 28888 ft 435 kts 50°
2026-04-30 07:27 -36.88814 145.87598 29260 ft 438 kts 50°
2026-04-30 07:27 -36.87021 145.90686 29649 ft 440 kts 50°
2026-04-30 07:27 -36.85216 145.93790 30017 ft 443 kts 50°
2026-04-30 07:27 -36.83400 145.96909 30394 ft 446 kts 50°
2026-04-30 07:28 -36.81571 146.00048 30704 ft 448 kts 50°
2026-04-30 07:28 -36.79731 146.03202 31018 ft 450 kts 50°
2026-04-30 07:28 -36.77883 146.06366 31327 ft 452 kts 50°
2026-04-30 07:28 -36.76026 146.09542 31646 ft 454 kts 50°
2026-04-30 07:29 -36.74163 146.12727 32000 ft 455 kts 50°
2026-04-30 07:29 -36.72327 146.15869 32418 ft 454 kts 50°
2026-04-30 07:29 -36.70470 146.19046 32810 ft 454 kts 50°
2026-04-30 07:29 -36.68612 146.22223 33230 ft 454 kts 50°
2026-04-30 07:30 -36.64891 146.28563 34041 ft 453 kts 50°
2026-04-30 07:30 -36.63024 146.31733 34446 ft 453 kts 50°
2026-04-30 07:30 -36.61162 146.34892 34793 ft 453 kts 50°
2026-04-30 07:31 -36.59300 146.38052 35170 ft 452 kts 50°
2026-04-30 07:31 -36.57445 146.41201 35521 ft 451 kts 50°
2026-04-30 07:31 -36.55591 146.44348 35854 ft 451 kts 50°
2026-04-30 07:31 -36.53738 146.47491 36193 ft 450 kts 50°
2026-04-30 07:32 -36.51911 146.50583 36511 ft 450 kts 50°
2026-04-30 07:32 -36.50062 146.53713 36841 ft 449 kts 50°
2026-04-30 07:32 -36.48210 146.56842 37142 ft 449 kts 50°
2026-04-30 07:32 -36.46361 146.59963 37436 ft 448 kts 50°
2026-04-30 07:33 -36.44512 146.63082 37740 ft 448 kts 50°
2026-04-30 07:33 -36.42665 146.66193 38030 ft 448 kts 50°
2026-04-30 07:33 -36.40814 146.69304 38297 ft 447 kts 50°
2026-04-30 07:33 -36.38964 146.72405 38582 ft 447 kts 50°
2026-04-30 07:34 -36.37113 146.75506 38865 ft 447 kts 50°
2026-04-30 07:34 -36.35265 146.78606 39104 ft 447 kts 50°
2026-04-30 07:34 -36.33443 146.81665 39275 ft 447 kts 50°
2026-04-30 07:35 -36.29725 146.87897 39351 ft 452 kts 50°
2026-04-30 07:35 -36.25965 146.94178 39353 ft 454 kts 50°
2026-04-30 07:36 -36.22202 147.00464 39352 ft 454 kts 50°
2026-04-30 07:36 -36.18433 147.06742 39353 ft 454 kts 50°
2026-04-30 07:37 -36.14680 147.12965 39348 ft 455 kts 50°
2026-04-30 07:37 -36.10892 147.19246 39349 ft 456 kts 50°
2026-04-30 07:38 -36.07097 147.25536 39345 ft 457 kts 50°
2026-04-30 07:38 -36.03288 147.31831 39358 ft 457 kts 50°
2026-04-30 07:39 -35.99475 147.38128 39364 ft 458 kts 50°
2026-04-30 07:39 -35.95675 147.44384 39358 ft 459 kts 50°
2026-04-30 07:40 -35.91839 147.50685 39366 ft 460 kts 50°
2026-04-30 07:40 -35.87995 147.56990 39370 ft 460 kts 50°
2026-04-30 07:41 -35.84142 147.63295 39382 ft 460 kts 50°
2026-04-30 07:41 -35.80313 147.69559 39381 ft 461 kts 51°
2026-04-30 07:42 -35.76447 147.75870 39381 ft 462 kts 51°
2026-04-30 07:42 -35.72582 147.82180 39391 ft 462 kts 51°
2026-04-30 07:43 -35.68702 147.88492 39385 ft 462 kts 50°
2026-04-30 07:43 -35.64810 147.94792 39397 ft 463 kts 51°
2026-04-30 07:44 -35.60917 148.01091 39408 ft 463 kts 51°
2026-04-30 07:44 -35.57050 148.07350 39403 ft 463 kts 51°
2026-04-30 07:45 -35.53151 148.13638 39402 ft 463 kts 50°
2026-04-30 07:45 -35.49248 148.19920 39400 ft 463 kts 51°
2026-04-30 07:46 -35.45343 148.26196 39419 ft 463 kts 51°
2026-04-30 07:46 -35.41463 148.32428 39413 ft 463 kts 51°
2026-04-30 07:47 -35.37558 148.38697 39419 ft 463 kts 51°
2026-04-30 07:47 -35.33651 148.44961 39417 ft 463 kts 51°
2026-04-30 07:48 -35.29737 148.51219 39426 ft 463 kts 51°
2026-04-30 07:48 -35.25809 148.57466 39412 ft 463 kts 51°
2026-04-30 07:49 -35.21880 148.63710 39414 ft 463 kts 51°
2026-04-30 07:49 -35.17970 148.69920 39411 ft 464 kts 51°
2026-04-30 07:50 -35.14029 148.76160 39407 ft 464 kts 51°
2026-04-30 07:50 -35.10084 148.82404 39414 ft 464 kts 51°
2026-04-30 07:51 -35.06132 148.88645 39243 ft 465 kts 51°
2026-04-30 07:51 -35.04152 148.91761 39007 ft 464 kts 51°
2026-04-30 07:51 -35.02176 148.94873 38725 ft 464 kts 51°
2026-04-30 07:51 -35.00230 148.97940 38448 ft 463 kts 51°
2026-04-30 07:52 -34.98262 149.01041 38173 ft 463 kts 51°
2026-04-30 07:52 -34.96291 149.04143 37910 ft 462 kts 51°
2026-04-30 07:52 -34.94325 149.07235 37641 ft 461 kts 51°
2026-04-30 07:52 -34.92359 149.10322 37377 ft 461 kts 51°
2026-04-30 07:53 -34.90390 149.13402 37113 ft 460 kts 51°
2026-04-30 07:53 -34.88421 149.16480 36487 ft 462 kts 52°
2026-04-30 07:53 -34.86443 149.19576 35826 ft 462 kts 52°
2026-04-30 07:53 -34.84482 149.22646 35384 ft 457 kts 52°
2026-04-30 07:54 -34.82534 149.25695 34868 ft 455 kts 52°
2026-04-30 07:54 -34.80625 149.28680 34376 ft 452 kts 52°
2026-04-30 07:54 -34.78699 149.31683 33827 ft 448 kts 52°
2026-04-30 07:54 -34.76789 149.34653 33335 ft 444 kts 52°
2026-04-30 07:55 -34.74896 149.37600 32841 ft 440 kts 53°
2026-04-30 07:55 -34.73248 149.40708 32351 ft 436 kts 62°
2026-04-30 07:55 -34.71846 149.43952 31868 ft 432 kts 63°
2026-04-30 07:55 -34.70453 149.47168 31391 ft 428 kts 62°
2026-04-30 07:56 -34.69066 149.50355 30924 ft 425 kts 62°
2026-04-30 07:56 -34.67682 149.53515 30449 ft 423 kts 62°
2026-04-30 07:56 -34.66306 149.56657 29948 ft 419 kts 62°
2026-04-30 07:56 -34.64944 149.59763 29503 ft 415 kts 62°
2026-04-30 07:57 -34.63616 149.62797 29071 ft 410 kts 62°
2026-04-30 07:57 -34.62281 149.65844 28648 ft 407 kts 63°
2026-04-30 07:57 -34.60960 149.68862 28212 ft 404 kts 63°
2026-04-30 07:57 -34.59648 149.71857 27808 ft 400 kts 63°
2026-04-30 07:58 -34.58343 149.74832 27406 ft 398 kts 62°
2026-04-30 07:58 -34.57044 149.77784 27004 ft 396 kts 62°
2026-04-30 07:58 -34.55750 149.80718 26606 ft 394 kts 62°
2026-04-30 07:58 -34.54462 149.83641 26200 ft 392 kts 62°
2026-04-30 07:59 -34.53176 149.86552 25778 ft 391 kts 62°
2026-04-30 07:59 -34.51894 149.89458 25351 ft 390 kts 62°
2026-04-30 07:59 -34.50635 149.92311 24936 ft 389 kts 62°
2026-04-30 08:00 -34.48088 149.98091 24056 ft 388 kts 62°
2026-04-30 08:00 -34.46826 150.00949 23547 ft 379 kts 62°
2026-04-30 08:00 -34.45600 150.03710 23130 ft 369 kts 62°
2026-04-30 08:00 -34.44388 150.06437 22680 ft 366 kts 62°
2026-04-30 08:01 -34.43185 150.09143 22239 ft 364 kts 62°
2026-04-30 08:01 -34.41990 150.11834 21795 ft 362 kts 62°
2026-04-30 08:01 -34.40805 150.14507 21359 ft 359 kts 62°
2026-04-30 08:01 -34.39625 150.17165 20916 ft 358 kts 62°
2026-04-30 08:02 -34.37295 150.22410 20042 ft 355 kts 62°
2026-04-30 08:02 -34.36128 150.25033 19602 ft 353 kts 62°
2026-04-30 08:03 -34.33798 150.30251 18716 ft 351 kts 62°
2026-04-30 08:03 -34.31483 150.35419 17785 ft 347 kts 61°
2026-04-30 08:03 -34.30338 150.37970 17355 ft 344 kts 61°
2026-04-30 08:04 -34.29204 150.40505 16918 ft 342 kts 61°
2026-04-30 08:04 -34.28075 150.43024 16486 ft 339 kts 60°
2026-04-30 08:04 -34.26970 150.45491 16052 ft 337 kts 60°
2026-04-30 08:04 -34.25858 150.47978 15627 ft 336 kts 61°
2026-04-30 08:05 -34.24751 150.50457 15198 ft 334 kts 61°
2026-04-30 08:05 -34.23650 150.52918 14769 ft 333 kts 61°
2026-04-30 08:05 -34.22559 150.55357 14335 ft 324 kts 60°
2026-04-30 08:05 -34.21489 150.57739 13896 ft 322 kts 61°
2026-04-30 08:06 -34.20422 150.60108 13485 ft 320 kts 60°
2026-04-30 08:06 -34.19364 150.62465 13069 ft 318 kts 61°
2026-04-30 08:06 -34.18313 150.64809 12655 ft 316 kts 60°
2026-04-30 08:06 -34.17271 150.67131 12361 ft 311 kts 61°
2026-04-30 08:07 -34.16273 150.69354 12204 ft 301 kts 61°
2026-04-30 08:07 -34.15284 150.71556 11824 ft 296 kts 61°
2026-04-30 08:07 -34.14307 150.73726 11298 ft 292 kts 61°
2026-04-30 08:07 -34.13335 150.75881 10859 ft 292 kts 62°
2026-04-30 08:08 -34.12371 150.78008 10400 ft 286 kts 62°
2026-04-30 08:08 -34.11417 150.80114 9696 ft 288 kts 62°
2026-04-30 08:08 -34.10469 150.82210 9145 ft 281 kts 62°
2026-04-30 08:08 -34.09551 150.84252 8786 ft 275 kts 62°
2026-04-30 08:09 -34.08641 150.86277 8508 ft 274 kts 62°
2026-04-30 08:09 -34.07746 150.88269 8231 ft 274 kts 62°
2026-04-30 08:09 -34.06841 150.90282 7949 ft 272 kts 62°
2026-04-30 08:09 -34.05939 150.92284 7672 ft 272 kts 61°
2026-04-30 08:10 -34.05038 150.94282 7376 ft 270 kts 61°
2026-04-30 08:10 -34.04144 150.96268 7103 ft 270 kts 62°
2026-04-30 08:10 -34.03435 150.98348 6826 ft 268 kts 78°
2026-04-30 08:10 -34.03405 151.00579 6542 ft 268 kts 100°
2026-04-30 08:11 -34.04094 151.02654 6254 ft 269 kts 123°
2026-04-30 08:11 -34.05324 151.04353 6046 ft 269 kts 132°
2026-04-30 08:11 -34.06629 151.05988 5713 ft 272 kts 134°
2026-04-30 08:11 -34.08124 151.07371 5404 ft 272 kts 148°
2026-04-30 08:12 -34.09850 151.08205 5130 ft 272 kts 164°
2026-04-30 08:12 -34.11703 151.08686 4853 ft 272 kts 166°
2026-04-30 08:12 -34.13556 151.09163 4577 ft 272 kts 166°
2026-04-30 08:12 -34.15407 151.09639 4302 ft 271 kts 166°
2026-04-30 08:13 -34.17245 151.10112 4065 ft 268 kts 166°
2026-04-30 08:13 -34.19026 151.10592 3973 ft 256 kts 160°
2026-04-30 08:13 -34.20557 151.11545 3819 ft 242 kts 137°
2026-04-30 08:13 -34.21501 151.13110 3698 ft 224 kts 105°
2026-04-30 08:14 -34.21662 151.14907 3562 ft 210 kts 85°
2026-04-30 08:14 -34.21589 151.16637 3438 ft 204 kts 83°
2026-04-30 08:14 -34.21484 151.18320 3313 ft 203 kts 83°
2026-04-30 08:14 -34.21363 151.20016 3185 ft 202 kts 79°
2026-04-30 08:15 -34.20808 151.21521 3086 ft 197 kts 45°
2026-04-30 08:15 -34.19610 151.22275 3003 ft 199 kts 12°
2026-04-30 08:15 -34.18267 151.22523 3000 ft 190 kts 11°
2026-04-30 08:15 -34.16976 151.22771 3002 ft 186 kts
2026-04-30 08:16 -34.15681 151.22873 3004 ft 188 kts 359°
2026-04-30 08:16 -34.14387 151.22685 3003 ft 188 kts 352°
2026-04-30 08:16 -34.13099 151.22389 3007 ft 188 kts 351°
2026-04-30 08:16 -34.11815 151.22065 2982 ft 191 kts 351°
2026-04-30 08:17 -34.10525 151.21731 2799 ft 189 kts 351°
2026-04-30 08:17 -34.09245 151.21398 2576 ft 187 kts 351°
2026-04-30 08:17 -34.08008 151.21076 2355 ft 181 kts 351°
2026-04-30 08:17 -34.06816 151.20764 2100 ft 170 kts 351°
2026-04-30 08:18 -34.05698 151.20473 1876 ft 159 kts 352°
2026-04-30 08:18 -34.04645 151.20199 1675 ft 152 kts 353°
2026-04-30 08:18 -34.03639 151.19938 1468 ft 143 kts 352°
2026-04-30 08:18 -34.02675 151.19688 1291 ft 141 kts 352°
2026-04-30 08:19 -34.01735 151.19444 1122 ft 136 kts 352°
2026-04-30 08:19 -34.00815 151.19204 948 ft 136 kts 353°
2026-04-30 08:19 -33.99900 151.18963 772 ft 135 kts 351°
2026-04-30 08:19 -33.98995 151.18726 594 ft 132 kts 352°
2026-04-30 08:20 -33.98101 151.18496 403 ft 133 kts 349°
2026-04-30 08:20 -33.97196 151.18263 222 ft 132 kts 349°
2026-04-30 08:20 -33.96297 151.18027 62 ft 133 kts 350°
2026-04-30 08:20 -33.95487 151.17824 22 ft 91 kts 348°
2026-04-30 08:21 -33.95150 151.17737 20 ft 24 kts 347°
2026-04-30 08:21 -33.94965 151.17686 22 ft 30 kts 348°
2026-04-30 08:21 -33.94771 151.17643 23 ft 28 kts 356°
2026-04-30 08:21 -33.94595 151.17660 23 ft 17 kts 12°
2026-04-30 08:22 -33.94572 151.17666 23 ft 1 kts 13°
2026-04-30 08:22 -33.94555 151.17672 24 ft 4 kts 15°
2026-04-30 08:22 -33.94526 151.17682 24 ft 5 kts 18°
2026-04-30 08:22 -33.94482 151.17699 25 ft 8 kts 17°
2026-04-30 08:23 -33.94462 151.17706 25 ft 0 kts 17°
2026-04-30 08:23 -33.94439 151.17715 24 ft 8 kts 18°
2026-04-30 08:23 -33.94373 151.17740 24 ft 12 kts 17°
2026-04-30 08:24 -33.94288 151.17723 21 ft 15 kts 345°
2026-04-30 08:24 -33.94177 151.17688 22 ft 18 kts 345°
2026-04-30 08:24 -33.94058 151.17652 22 ft 17 kts 345°
2026-04-30 08:24 -33.93954 151.17625 20 ft 5 kts 347°
2026-04-30 08:25 -33.93953 151.17624 20 ft 0 kts 347°
2026-04-30 08:25 -33.93933 151.17619 21 ft 7 kts 347°
2026-04-30 08:25 -33.93875 151.17640 19 ft 11 kts 64°
2026-04-30 08:25 -33.93854 151.17733 20 ft 6 kts 76°
2026-04-30 08:26 -33.93851 151.17746 20 ft 0 kts 75°
2026-04-30 08:26 -33.93843 151.17768 21 ft 5 kts 55°
2026-04-30 08:26 -33.93790 151.17783 25 ft 11 kts
2026-04-30 08:26 -33.93734 151.17795 29 ft 5 kts 10°
2026-04-30 08:27 -33.93720 151.17798 30 ft 0 kts 10°
2026-04-30 08:27 -33.93715 151.17800 30 ft 4 kts 10°
2026-04-30 08:27 -33.93674 151.17809 31 ft 8 kts 10°
2026-04-30 08:27 -33.93635 151.17813 31 ft 3 kts 340°
2026-04-30 08:28 -33.93621 151.17789 31 ft 4 kts 294°
2026-04-30 08:28 -33.93611 151.17771 30 ft 3 kts 303°
2026-04-30 08:28 -33.93604 151.17757 30 ft 1 kts 301°
2026-04-30 08:28 -33.93600 151.17750 30 ft 0 kts 303°